User: anonymous   Login
Location: Unspecified
(0.0000°N, 0.0000°E)
Time: 13:13:35
(UTC+00:00)
Language:

UWE-3 - Orbit

View from above orbital plane
View from above orbital plane
View from above satellite
View from above satellite

Ground track
Ground track

The orbit data is extracted from the following two-line orbital elements,

1 39446U 13066AG  19167.58937375  .00000137  00000-0  24771-4 0  9999
2 39446  97.5808 173.1700 0071547  67.4881 293.3885 14.78386222298956
Epoch (UTC): 16 June 2019 14:08:41
Eccentricity: 0.0071547
inclination: 97.5808°
perigee height: 584 km
apogee height: 684 km
right ascension of ascending node: 173.1700°
argument of perigee: 67.4881°
revolutions per day: 14.78386222
mean anomaly at epoch: 293.3885°
orbit number at epoch: 29895

The dashed part of the orbit path shows where the satellite is in the earth's shadow,  

DLR